TITAN 4B R/B (26474 NORAD) Tracking and Keplerian Element Data

This shows tracking and keplerian element data for the satellite.

Feedback or suggestion? Click here.




ElementValue
Catalog26474
NameTITAN 4B R/B
Epoch Orbit27459
Epoch Day12.9722547
Epoch Year2024
RAAN77.988
Inclination67.9936
Eccentricity0.0052119
Argument of Perigee206.2872
Mean Anonmoly153.5627
Mean Motion15.00554892
Decay Rate4.982E-05
L11 26474U 00047B 24012.97225470 .00004982 00000+0 39240-3 0 9992
L22 26474 67.9936 77.9880 0052119 206.2872 153.5627 15.00554892274594



Live tracking and technical data element details for TITAN 4B R/B (NORAD 26474). TITAN 4B R/B can be tracked NOW for your location showing map with azimuth and elevation plus other details from your city location.







IsCatalogInMostPopularTable: catalog: 26474, numindb: 182
Update: records affected: 1



GetName: 26474 TITAN 4B R/B

Hit Count: updated at: Fri, 19 Apr 2024 11:55:56 GMT